Theta_e
341 340 340 338 338 339 338 338 336 336 337 335 333 331 328 329 328 326 327 326 323 323 323 321 324 327 329 330 331 332 332 332 332 333 333 338 344 339 334 335 333 332 332 331 335 336 338 337 334 333 334 332 330 330 328 327 327 325 323 320 318 317 317 318 320 322 324 324 325 325 326 324 323 323 323 323 323 324 324 325 324 323 323 323 324
342 341 340 339 340 340 340 339 337 337 338 335 335 334 331 330 329 328 327 326 324 325 323 322 324 327 329 330 331 332 332 332 332 333 334 338 345 341 334 334 334 332 332 332 335 337 338 337 335 334 334 333 332 330 327 327 327 324 322 321 320 318 316 316 318 320 322 323 324 324 324 323 322 322 322 322 322 323 323 323 322 322 322 322 322
342 342 341 341 340 340 340 339 338 338 336 334 335 334 333 333 332 331 328 328 327 326 324 323 325 327 329 330 331 332 332 332 333 334 335 338 343 344 338 334 333 333 332 332 334 337 337 337 335 334 334 333 333 330 326 327 327 325 323 322 320 318 316 315 317 319 319 321 323 323 322 322 321 321 321 321 321 321 321 321 321 321 321 320 320
341 341 341 340 339 339 339 339 338 338 336 335 337 335 333 334 332 329 327 327 327 326 326 325 326 328 329 330 332 333 333 333 334 335 337 338 340 344 343 338 334 332 332 333 335 337 337 337 336 335 334 334 333 329 327 328 329 326 324 322 320 317 315 315 318 318 318 320 322 322 321 321 320 320 320 319 319 318 319 319 319 320 319 318 319
339 339 340 340 340 339 340 339 339 340 338 334 334 334 333 333 331 328 328 327 327 327 327 326 326 327 329 329 332 334 333 332 335 336 338 339 339 342 343 343 340 336 334 334 335 337 338 337 336 335 334 334 333 328 327 330 329 327 325 322 320 316 315 318 320 320 320 321 322 322 321 320 319 318 318 317 316 316 317 318 318 318 317 317 318
338 338 338 339 340 340 339 339 339 341 339 332 331 334 333 333 332 330 329 327 327 329 328 328 328 328 331 332 332 335 333 333 335 337 338 339 339 340 341 344 343 340 339 337 336 337 338 337 336 335 334 335 332 327 328 330 329 328 325 322 320 316 316 320 321 321 321 321 322 321 319 318 318 317 316 316 315 315 316 317 317 316 316 317 317
339 338 338 338 339 339 338 340 339 339 338 335 334 338 335 334 333 330 330 327 327 330 330 329 329 329 334 335 333 335 334 334 337 337 338 339 340 340 341 342 342 340 340 339 338 337 338 336 336 335 334 334 331 326 329 330 329 328 325 322 319 315 316 320 321 321 321 321 322 320 319 318 317 317 316 315 314 315 316 316 316 315 315 316 316
339 338 338 337 339 338 337 340 339 337 339 338 336 337 337 337 335 331 331 330 328 331 331 331 331 332 336 335 335 336 333 334 337 337 338 339 339 341 342 342 342 341 340 340 339 339 338 336 335 334 334 334 329 326 329 329 328 327 324 322 318 314 316 320 320 321 321 321 321 319 318 317 316 317 317 316 315 315 315 315 314 314 313 314 314
339 338 338 338 339 339 339 340 338 338 341 339 335 337 339 337 335 333 333 334 331 332 334 333 334 335 337 336 336 336 335 335 337 337 338 338 339 341 342 342 342 342 342 341 338 338 338 336 335 333 334 333 327 327 329 328 328 326 324 322 316 314 316 318 319 320 320 320 320 319 318 317 316 316 317 317 316 315 314 313 313 313 313 313 313
339 338 338 338 339 340 341 341 339 340 340 338 337 339 339 337 337 337 336 336 334 336 336 336 337 338 338 338 339 338 337 338 337 338 338 338 339 340 341 341 343 344 343 342 339 337 337 337 335 334 334 332 325 327 329 328 327 326 324 321 315 314 317 317 319 319 319 319 319 318 317 315 315 316 316 316 316 315 313 312 312 312 313 312 312
339 338 338 338 339 341 343 340 339 340 339 337 338 340 340 340 340 341 340 338 337 339 339 339 339 340 340 340 340 339 339 339 338 338 338 338 339 340 340 341 343 344 343 342 340 337 336 336 336 334 334 331 324 326 329 328 327 325 324 320 315 316 317 317 317 318 318 318 317 317 317 315 314 315 314 314 315 315 313 312 312 312 312 312 312
339 338 338 339 340 342 343 341 339 340 339 338 339 340 341 341 341 343 343 340 339 340 340 340 340 341 341 341 341 340 340 339 339 339 338 339 339 339 340 341 342 343 342 341 341 339 337 335 335 334 334 330 324 324 328 328 326 325 323 319 317 316 316 316 315 316 316 316 316 316 315 315 316 316 314 313 315 315 314 313 312 312 312 312 312
340 339 338 339 341 342 343 342 340 341 341 340 341 342 342 342 342 343 343 342 341 340 341 341 340 340 340 341 341 341 341 341 340 340 339 339 339 339 340 341 341 341 341 340 339 340 339 336 335 333 333 330 325 324 327 328 325 325 323 319 318 316 316 316 316 315 315 314 314 314 314 315 315 315 315 314 314 314 314 312 312 312 312 311 312
339 339 339 340 342 343 343 342 341 342 343 342 343 344 343 343 343 342 342 342 341 342 342 341 339 339 340 340 339 340 342 341 340 340 339 339 339 340 340 340 340 340 340 340 339 339 339 337 335 334 333 331 328 326 328 328 326 325 323 319 318 316 315 316 315 315 313 313 314 313 313 314 313 313 313 312 313 314 314 312 311 312 311 311 312
339 339 339 341 342 344 343 342 342 343 343 343 344 344 344 343 343 342 342 341 341 342 343 341 339 339 340 339 338 337 340 341 341 340 340 339 339 339 340 340 340 340 340 340 340 339 338 337 336 335 334 331 329 329 329 329 327 325 322 319 319 317 316 315 315 314 313 312 313 312 312 312 312 311 311 312 313 313 313 312 311 311 311 311 312
339 339 340 341 342 343 343 343 343 343 343 343 344 343 343 344 343 342 342 341 340 341 342 342 340 339 339 338 338 336 337 340 340 340 340 340 340 340 340 340 340 340 340 340 340 339 338 338 336 335 334 332 329 329 330 329 327 324 321 319 319 318 316 315 314 314 313 312 312 311 311 311 311 311 311 311 312 312 312 311 311 311 311 312 312
339 339 341 341 342 342 343 343 343 343 344 343 343 343 343 343 342 342 342 341 340 340 341 341 341 340 339 337 337 337 337 338 338 339 341 340 340 340 340 340 340 340 340 340 339 338 338 337 337 335 334 332 327 327 330 329 327 325 322 320 319 318 316 315 314 313 313 312 311 311 310 310 310 310 310 311 311 312 311 311 311 311 311 312 312
340 341 341 342 342 342 343 343 342 342 344 343 343 343 343 342 341 341 341 341 341 340 340 341 340 340 339 338 338 337 337 337 337 338 340 340 340 341 340 340 341 341 341 340 339 338 337 337 337 335 334 332 327 327 330 329 327 326 324 321 318 318 317 316 315 313 313 313 312 311 310 310 310 310 310 310 311 311 310 310 310 311 311 312 312
341 341 341 342 342 342 343 344 342 342 343 343 343 344 343 342 341 340 340 340 341 341 340 340 340 340 339 339 339 338 338 338 338 338 338 339 340 341 341 341 341 341 341 340 339 338 338 336 336 334 334 333 328 326 329 329 327 326 325 321 319 319 318 316 315 314 313 313 312 311 311 310 310 310 310 310 310 311 310 310 310 311 311 311 311
342 342 342 342 343 342 343 344 343 343 343 343 343 343 343 342 341 341 341 340 340 340 340 339 338 339 339 339 339 339 339 339 339 339 338 338 339 340 341 341 341 341 340 340 339 339 338 337 335 333 333 332 328 326 328 329 326 325 324 320 319 320 319 317 316 315 314 313 312 311 311 310 310 310 310 309 310 310 310 310 310 311 311 311 311
342 342 342 342 343 343 343 344 344 343 342 342 342 343 343 342 342 342 341 341 341 340 340 339 339 338 339 339 339 338 339 339 339 339 339 339 339 339 340 340 341 341 340 339 339 338 338 337 336 333 332 332 329 327 328 329 326 326 323 318 319 320 319 318 317 316 315 313 312 312 311 311 310 310 310 309 309 310 310 310 310 311 311 310 310
342 342 342 342 343 343 343 343 344 344 342 341 342 343 343 342 342 341 341 341 340 340 340 339 339 338 338 339 338 338 339 339 339 340 340 341 341 341 341 341 341 341 341 340 339 338 338 336 335 333 331 331 329 327 328 329 326 326 324 317 318 321 319 318 317 316 315 313 313 312 311 311 310 310 309 309 309 309 310 309 309 310 310 310 309
342 342 342 343 343 343 343 343 344 344 343 341 341 343 342 342 341 341 341 340 340 340 340 340 339 339 338 338 337 338 339 339 340 341 341 342 342 341 341 340 340 341 340 339 337 337 337 336 334 332 330 330 330 328 327 329 327 326 324 318 317 320 320 319 317 315 315 314 313 312 312 311 310 308 307 308 309 309 310 309 309 309 309 309 309
342 342 343 343 342 342 342 342 343 344 343 341 341 342 342 341 341 341 341 340 340 340 340 340 339 339 338 338 338 338 339 340 340 340 341 342 342 341 340 340 339 339 338 337 336 335 335 336 334 332 330 329 330 328 327 328 327 326 324 318 317 320 320 319 317 315 315 314 313 313 312 311 310 307 303 304 308 309 309 309 309 309 309 309 309
343 343 343 343 342 342 342 342 343 344 344 342 342 342 342 341 341 341 340 340 340 340 340 340 340 339 339 338 339 340 340 340 340 340 341 342 342 342 340 339 338 337 337 337 335 335 334 334 334 332 331 330 329 328 327 328 327 326 323 318 317 319 319 319 317 315 315 314 313 313 313 312 310 308 303 300 304 309 309 309 309 309 309 309 309
343 343 344 343 342 342 342 343 343 344 344 344 343 342 342 341 341 341 340 340 340 340 340 340 340 339 339 339 340 341 341 341 341 341 342 342 341 342 340 338 337 337 337 336 335 335 335 334 333 332 331 329 329 328 326 327 327 325 323 320 317 318 318 319 318 317 316 315 314 313 313 312 311 310 307 301 300 306 309 308 309 309 309 309 309
343 343 343 343 342 343 343 344 345 345 344 343 343 342 342 342 341 341 341 340 340 340 340 340 340 340 340 340 341 342 342 342 342 342 342 341 340 341 339 337 337 337 335 335 334 334 335 334 332 332 331 329 328 328 325 325 327 325 322 322 320 316 317 319 319 318 317 315 314 313 312 313 312 310 310 305 299 302 308 308 308 309 309 309 309
343 344 344 343 343 344 344 345 346 345 343 342 343 343 342 342 342 342 342 341 340 340 341 341 341 341 341 342 342 343 344 343 341 341 341 340 340 340 338 337 336 336 335 334 333 334 335 334 332 331 330 329 328 328 326 325 327 325 321 323 322 317 315 318 318 318 317 315 314 314 312 312 312 311 309 307 302 300 305 307 307 308 308 309 309
345 345 345 344 344 344 345 346 346 344 343 343 343 343 343 342 342 342 342 341 340 340 341 341 341 342 342 344 344 343 343 342 341 341 339 340 340 339 338 337 337 336 335 334 334 334 334 333 333 331 330 329 328 328 327 325 326 325 322 323 324 320 316 315 317 317 317 316 313 314 313 312 312 311 309 309 307 305 304 304 306 308 308 307 308
347 347 346 345 345 345 345 346 345 344 344 344 344 343 343 343 342 342 341 341 340 340 340 340 341 342 342 343 344 343 342 341 340 340 339 339 339 338 337 336 336 336 336 335 334 333 334 334 333 331 330 329 329 328 327 326 326 325 324 324 324 322 316 313 315 316 315 313 310 310 312 312 311 310 310 309 310 309 307 304 305 308 308 307 307
346 346 346 345 345 345 345 346 345 345 345 345 344 344 344 343 343 342 341 340 340 340 340 340 341 341 342 343 343 342 341 340 340 340 339 339 338 337 337 336 336 335 336 335 334 333 333 333 333 331 330 329 329 328 328 327 325 325 325 324 324 322 316 312 314 313 310 308 307 307 309 311 311 310 310 310 311 311 309 306 307 307 306 306 305
346 346 346 346 346 345 345 345 345 346 346 345 345 344 344 343 343 342 341 341 340 340 340 340 340 340 342 343 342 341 341 340 339 339 338 337 337 337 337 336 335 335 334 334 334 333 333 332 332 331 330 329 329 328 328 327 325 325 325 324 324 321 315 312 312 310 307 306 307 308 308 308 310 311 311 311 312 312 310 308 306 303 300 298 299
346 347 346 346 346 345 345 345 346 346 345 345 345 344 344 344 343 342 341 341 340 340 340 340 340 341 342 342 341 341 341 340 339 339 338 338 337 336 336 335 335 334 334 333 334 334 333 332 331 330 330 329 328 328 327 326 325 325 325 324 323 319 314 312 311 308 306 308 309 310 309 308 310 311 311 312 312 312 311 308 305 303 300 296 294
346 346 346 346 346 345 345 345 345 346 345 345 345 344 344 344 343 342 341 341 340 340 340 340 340 341 341 341 341 341 340 339 339 339 338 338 337 336 335 334 334 333 333 334 333 333 333 332 331 330 329 329 328 327 327 326 326 325 324 324 322 318 314 314 314 310 307 308 310 310 309 309 310 311 311 311 311 312 311 309 305 305 305 300 295
346 346 345 345 345 345 344 344 345 345 344 345 345 344 344 344 342 342 341 341 340 340 341 340 341 341 341 341 341 340 340 339 339 338 338 337 336 336 335 333 333 333 333 333 332 332 333 332 331 330 329 329 328 327 326 326 326 325 324 324 321 317 315 315 317 313 308 308 310 310 309 309 309 310 310 310 310 310 310 309 307 307 308 304 297
346 346 345 345 345 344 344 344 344 344 344 344 344 344 344 343 342 341 341 341 341 340 340 341 341 341 341 341 341 340 340 339 339 339 338 336 336 335 334 333 332 333 333 332 331 332 333 332 331 330 328 328 327 326 325 325 325 324 324 324 321 318 316 316 317 316 311 308 309 310 310 309 309 309 308 309 308 308 308 309 309 308 308 306 299
346 346 346 345 345 344 344 344 344 344 344 344 344 344 344 342 342 341 340 340 340 340 340 340 341 341 340 341 340 340 340 339 339 338 337 336 335 335 334 332 332 332 332 332 331 331 332 332 331 329 327 327 326 325 324 324 324 323 323 323 321 318 317 316 316 316 312 309 308 308 309 309 309 308 308 308 308 307 306 307 308 308 308 307 301
345 346 346 345 345 345 345 344 344 344 344 344 343 343 343 342 342 341 340 340 340 340 340 340 340 340 340 340 340 340 339 339 338 338 337 336 335 334 333 332 332 332 332 332 332 331 331 332 331 329 327 326 326 325 324 323 323 322 322 322 320 318 316 313 314 316 314 310 307 307 307 308 308 308 308 308 308 307 306 304 306 307 307 307 302
345 345 345 345 345 345 344 344 343 343 343 343 342 342 342 342 342 341 341 341 341 340 340 340 340 339 340 340 340 340 339 338 338 337 336 335 334 333 332 332 332 331 331 332 331 331 331 331 330 329 327 326 326 325 323 323 322 322 321 320 318 317 315 311 313 316 315 312 310 309 307 309 309 308 308 308 308 307 305 302 303 306 306 307 303
344 344 344 344 345 344 344 343 343 343 342 342 342 342 342 342 341 341 341 341 341 341 341 340 340 339 340 340 340 339 338 338 337 336 335 335 333 332 331 331 331 330 331 331 331 331 331 330 330 329 327 326 326 325 323 322 322 322 321 320 317 315 313 312 314 317 316 314 314 312 309 310 311 309 308 308 308 307 304 300 301 305 306 307 304
344 344 344 344 344 344 344 343 343 343 343 343 342 342 342 342 341 341 341 341 341 341 341 341 340 340 340 339 339 339 338 337 336 335 333 332 331 331 331 330 330 330 330 330 331 331 330 330 330 329 328 327 326 325 323 321 322 322 321 320 318 316 314 314 316 317 317 315 315 314 313 312 313 311 310 309 308 307 304 300 301 304 306 307 304
344 344 343 343 343 343 343 343 343 344 343 343 343 342 342 342 341 341 341 341 341 341 341 341 339 339 339 339 339 338 337 336 334 332 330 328 327 329 330 330 330 330 330 330 330 330 330 330 329 328 328 328 327 325 324 323 322 322 321 320 320 319 317 317 318 318 317 315 314 315 315 314 314 313 312 311 309 307 304 300 301 303 305 306 304
343 343 343 343 343 343 343 343 343 344 343 343 343 342 340 341 341 341 341 340 340 340 340 339 339 339 339 338 338 337 336 334 331 329 327 326 325 326 327 327 328 329 329 329 329 329 329 329 328 328 328 328 327 327 326 324 323 323 322 321 322 321 320 320 320 319 318 316 315 316 316 315 314 314 313 312 310 307 304 302 301 300 301 304 303
343 343 344 344 343 343 343 343 344 344 344 343 342 340 339 339 340 341 341 340 340 339 339 339 339 339 339 338 337 336 334 331 329 328 326 326 324 324 324 324 324 325 326 327 327 328 328 328 327 327 327 328 328 327 326 325 324 323 323 322 323 323 322 322 322 321 320 317 316 317 316 315 314 313 313 311 309 307 305 304 301 299 299 302 301
342 342 343 344 343 343 343 343 343 343 343 341 340 339 339 338 339 339 341 340 339 339 339 339 339 339 338 338 336 335 332 330 328 327 326 325 323 323 323 323 322 322 322 322 323 323 324 326 326 326 327 327 327 327 326 325 324 324 324 323 323 324 324 323 323 323 320 317 317 317 314 311 312 311 311 310 308 307 306 305 302 299 299 300 301
341 342 343 344 343 343 343 343 342 342 341 341 340 339 339 339 338 338 340 340 339 339 338 339 339 338 338 337 336 334 332 329 328 326 325 324 323 323 323 322 322 321 319 318 318 319 319 322 325 327 327 327 327 327 325 324 324 325 324 324 324 324 324 323 321 319 317 315 316 315 310 307 309 309 308 307 307 306 306 305 303 301 300 300 300
341 341 343 344 343 343 343 342 341 341 341 340 340 339 339 339 338 338 339 340 339 339 339 338 338 338 337 337 336 334 331 329 328 327 325 325 324 324 324 323 322 320 318 316 316 317 319 321 324 325 325 325 325 326 325 324 324 324 324 324 324 324 322 321 317 315 314 313 314 314 309 304 305 305 303 303 303 304 304 304 304 304 303 301 300
341 342 343 344 343 343 342 342 341 341 341 341 340 339 339 339 338 338 339 340 339 339 339 338 338 338 337 336 335 334 331 329 329 327 325 326 325 324 324 323 321 318 316 315 316 316 317 318 319 319 319 320 321 321 322 323 324 323 323 323 323 322 321 320 317 315 313 311 311 312 308 302 301 302 302 301 301 302 302 303 304 304 304 304 302
342 343 343 343 343 343 343 342 342 341 341 340 340 339 339 339 338 338 339 339 339 339 338 338 337 337 336 336 335 334 331 330 329 326 325 325 325 324 324 323 321 317 314 314 315 314 314 314 315 315 315 315 316 317 317 319 321 322 321 321 321 321 320 319 317 316 313 309 309 311 307 302 301 302 301 300 300 301 301 302 302 303 304 304 303
343 343 343 343 343 343 343 342 342 341 341 340 340 339 339 338 338 338 339 339 339 338 338 337 336 335 335 335 333 331 330 330 328 325 324 324 325 324 324 322 321 318 315 313 313 312 312 312 312 312 312 313 314 314 315 316 318 319 320 320 320 320 320 319 317 316 313 308 307 309 306 302 301 302 300 299 298 298 299 299 299 299 301 302 302
342 343 342 342 342 343 342 342 341 341 341 340 339 339 338 338 338 338 339 338 338 338 337 336 335 334 333 332 331 330 330 329 326 324 323 324 324 324 322 321 320 319 317 315 314 313 313 314 314 314 313 313 313 313 314 314 315 316 318 319 319 318 318 317 316 316 314 309 306 307 305 301 300 301 300 299 298 296 296 296 296 297 298 299 300
Wind_Speed
15 16 15 15 14 14 14 13 13 11 11 11 9 8 8 7 6 6 5 5 5 5 5 5 5 4 5 4 4 4 4 3 2 0 1 1 1 3 3 2 3 4 4 5 5 4 3 4 3 2 2 0 2 3 4 4 5 6 7 9 10 9 9 9 8 7 6 6 6 6 6 7 8 8 8 8 8 8 7 7 6 6 6 6 6
14 14 14 14 13 13 12 12 12 11 10 10 9 8 7 7 6 6 5 5 5 5 5 6 6 5 5 5 4 4 3 2 1 1 1 1 2 4 4 3 3 4 5 5 5 4 4 4 4 3 2 1 2 3 3 3 4 5 7 10 9 9 9 8 8 7 6 7 7 6 6 7 8 8 8 8 8 7 6 5 6 6 5 5 4
13 13 12 13 12 12 12 11 11 11 11 10 9 8 7 6 5 5 5 4 4 4 5 5 6 5 5 5 4 4 4 2 2 1 1 1 2 2 4 4 4 4 5 6 6 5 4 4 4 3 2 2 2 2 3 3 4 4 6 9 9 9 9 8 6 4 5 7 6 5 6 7 7 8 8 8 7 6 5 5 5 5 5 5 5
13 12 11 11 12 12 11 10 10 10 10 9 8 9 7 6 6 6 6 5 5 5 5 5 6 6 5 5 4 4 4 3 3 2 1 2 2 3 4 4 5 4 5 7 6 5 5 5 5 4 3 3 2 2 3 3 3 3 6 9 9 9 11 9 6 4 5 6 4 4 6 7 8 8 8 8 8 7 6 6 6 6 7 6 6
13 12 11 11 11 11 10 9 9 8 9 11 11 9 8 7 7 6 6 6 6 6 6 6 6 5 5 5 4 4 5 4 3 2 2 3 3 3 4 5 5 4 5 7 8 6 5 6 5 5 4 4 2 2 3 3 2 3 6 8 8 11 11 9 7 6 6 5 4 5 7 7 8 9 9 9 9 9 9 8 8 8 8 7 7
13 13 12 10 10 10 9 8 8 7 8 11 11 8 7 7 6 6 6 6 6 6 5 5 5 5 4 4 4 4 5 5 4 3 4 3 4 4 4 5 5 4 5 7 9 7 6 6 6 5 5 5 3 1 3 2 1 3 5 6 8 11 10 8 8 8 7 7 6 7 8 8 9 9 10 9 9 10 9 9 9 9 8 9 10
14 14 13 11 9 9 9 8 8 8 7 9 9 6 7 7 6 6 6 6 7 6 5 5 5 4 2 3 4 4 5 5 4 5 5 4 5 5 5 5 5 6 6 7 9 8 7 7 7 6 5 5 3 2 2 0 1 2 4 5 9 10 8 8 8 8 8 8 8 8 9 10 9 9 9 10 10 10 9 9 10 10 9 10 11
15 15 13 11 9 9 9 8 8 9 7 8 8 6 6 6 6 6 5 6 7 6 5 4 4 3 2 2 4 4 6 6 5 6 6 6 6 5 5 5 5 6 6 8 8 8 7 8 8 7 6 6 4 3 2 2 1 1 3 5 9 9 8 8 7 7 8 8 9 9 10 10 9 9 9 10 10 10 9 10 10 9 9 10 10
16 16 14 11 9 8 9 9 9 9 8 8 7 6 6 6 6 6 6 6 6 5 4 4 3 2 2 2 3 4 6 6 6 7 7 7 7 6 6 5 5 6 6 7 8 8 8 9 10 9 6 6 5 5 4 3 1 1 2 5 8 8 7 8 7 7 8 8 10 10 10 10 10 9 9 10 10 10 10 10 9 9 10 10 11
16 16 14 11 9 8 8 10 10 9 8 8 7 7 6 6 6 6 7 6 5 5 4 4 3 2 3 3 3 5 6 6 7 7 8 8 7 7 6 5 6 6 6 6 7 8 9 11 11 9 8 7 7 8 5 3 3 3 1 4 8 8 8 8 7 7 7 8 9 9 9 9 8 7 8 10 9 9 10 10 9 9 10 11 11
16 16 15 12 10 9 9 10 10 9 9 8 8 7 7 7 7 7 7 6 6 5 4 4 3 3 3 4 5 5 6 7 7 8 8 8 7 7 6 6 6 6 7 7 6 7 8 11 11 9 9 8 9 9 6 5 5 4 1 4 7 8 8 7 6 6 6 7 7 9 8 7 7 7 7 8 8 9 10 10 9 9 10 11 10
17 16 15 14 12 11 10 10 10 10 9 9 9 8 8 8 8 7 7 7 6 6 5 4 4 5 5 5 5 5 6 7 8 8 7 7 7 7 7 7 6 6 7 7 7 7 7 8 10 11 11 10 10 10 7 6 5 3 1 4 7 8 8 7 6 6 5 6 5 6 7 7 8 8 8 7 8 9 9 9 8 9 10 11 11
17 16 15 15 13 12 11 11 11 10 10 10 9 8 9 8 8 7 7 7 7 6 5 4 5 6 5 5 5 5 5 6 7 7 7 7 7 8 7 7 7 6 7 8 8 8 6 6 8 10 11 12 12 11 10 8 6 4 3 6 8 8 9 8 7 6 5 5 5 4 6 7 7 8 8 8 7 8 9 9 8 9 10 10 11
17 17 16 15 14 12 12 11 11 10 10 10 10 9 9 9 8 8 8 8 7 7 6 5 5 5 5 5 5 4 5 5 6 6 6 6 7 8 8 8 8 7 7 8 8 9 9 9 8 7 10 13 12 11 11 9 8 6 4 6 8 8 9 8 7 7 6 6 6 6 6 6 6 6 7 7 7 8 10 10 8 9 10 10 10
17 17 16 15 14 13 12 12 12 11 10 10 10 10 10 10 9 8 8 8 8 7 6 6 5 4 4 5 3 2 4 5 5 5 6 6 6 7 7 8 9 8 8 8 8 9 9 9 8 8 11 12 11 12 12 11 10 7 5 6 8 8 9 8 7 7 7 7 7 8 7 6 6 6 7 8 8 8 9 10 9 9 10 10 11
18 18 16 15 15 13 12 12 13 12 11 10 10 11 10 11 11 10 8 8 8 7 7 7 5 4 4 4 2 3 3 2 2 5 6 6 7 7 7 7 8 8 8 8 9 8 8 9 9 10 13 11 11 13 11 10 10 7 6 7 8 8 8 9 8 7 7 7 8 8 8 7 6 7 7 8 8 8 8 9 9 10 10 11 11
19 18 16 15 15 14 13 13 14 13 12 11 10 10 10 11 11 11 10 9 8 7 7 7 7 5 5 5 3 4 2 2 3 3 7 6 6 6 6 7 9 8 9 10 9 9 8 10 11 11 12 11 11 12 9 9 11 9 8 7 8 9 8 9 9 8 7 7 8 8 8 7 7 7 7 7 7 8 9 9 9 10 11 11 12
19 18 17 15 15 15 14 14 14 14 13 11 10 10 11 11 12 12 11 11 8 7 7 8 7 6 7 6 5 5 5 4 4 2 4 5 4 5 6 7 9 9 10 10 10 10 10 11 14 14 13 11 11 12 10 11 11 10 9 9 9 10 9 9 8 8 7 7 7 8 7 7 7 7 7 7 7 8 9 8 9 10 11 11 12
20 19 17 16 16 16 15 14 14 14 14 12 11 11 11 11 12 12 11 10 10 9 9 8 7 7 7 7 6 7 8 7 6 5 3 3 4 4 6 7 9 9 11 11 10 10 10 12 15 13 12 13 12 15 13 13 12 10 11 9 9 11 11 9 8 8 8 8 7 7 7 7 7 7 7 7 7 8 8 8 9 9 10 11 11
20 18 17 17 16 16 16 15 14 14 14 13 12 12 11 11 11 11 11 11 11 10 10 9 8 8 7 7 7 7 9 10 9 8 6 3 2 4 5 7 8 9 10 11 10 10 9 11 14 12 12 13 14 17 15 14 13 11 11 10 9 11 11 10 9 9 9 8 7 8 8 7 7 7 7 8 8 8 8 8 8 9 10 10 11
19 17 17 17 16 16 16 15 15 15 14 14 13 12 12 11 12 12 12 11 11 11 11 10 9 9 7 7 7 7 8 10 10 9 7 6 4 3 4 6 8 9 10 10 9 9 9 10 13 13 12 13 17 18 16 15 15 12 11 10 11 12 12 11 10 10 9 7 7 7 8 7 7 7 7 7 8 7 7 8 8 8 9 10 10
18 17 17 17 16 16 16 15 16 15 15 14 14 14 13 13 13 12 12 12 11 11 11 11 10 10 9 8 7 7 8 8 8 8 7 6 6 6 6 5 6 7 7 7 7 7 8 9 11 12 11 12 17 20 17 15 15 13 12 11 13 13 12 12 10 9 9 8 8 7 7 8 7 7 6 7 9 9 7 7 8 8 9 9 10
18 17 17 17 17 16 15 15 16 16 16 15 14 14 14 14 13 12 12 11 11 11 11 12 12 11 10 10 8 8 8 8 8 7 6 5 5 6 8 7 7 8 4 2 5 7 7 8 9 10 10 10 15 20 17 13 13 15 13 11 13 14 13 12 10 8 9 8 7 6 7 7 7 7 6 7 10 10 9 7 7 8 8 8 9
17 17 18 18 17 17 16 15 16 16 16 16 15 14 14 13 12 11 10 9 9 10 11 12 13 12 11 10 9 9 10 10 8 8 7 6 7 7 7 7 7 9 7 4 5 7 6 6 7 9 9 9 13 20 19 15 14 15 13 11 13 15 13 12 11 9 9 7 6 6 7 8 7 6 7 7 10 10 10 9 7 8 8 8 8
18 18 18 20 19 18 18 17 17 17 16 16 15 15 14 13 12 11 9 8 8 10 11 12 13 13 12 10 9 10 10 10 9 8 8 7 8 7 7 7 7 9 8 5 5 4 4 5 7 8 9 8 11 18 21 18 16 17 14 12 13 15 14 13 12 11 10 8 5 5 7 8 7 5 7 6 9 11 11 10 8 7 8 8 8
19 18 18 20 19 18 19 18 17 17 16 16 15 15 15 14 13 11 10 8 9 10 11 12 13 13 12 10 10 10 10 9 8 8 7 7 7 8 8 8 8 9 8 6 4 2 2 3 5 7 8 8 10 18 22 19 16 17 16 13 13 14 14 14 12 12 11 8 6 5 6 8 8 5 3 5 6 12 12 11 10 8 8 8 8
18 18 19 21 20 19 19 19 18 17 16 16 15 15 16 15 13 12 11 9 9 11 11 12 12 13 13 11 10 10 9 8 8 7 6 6 7 8 8 8 8 7 7 6 3 1 2 5 5 6 8 8 9 15 22 21 16 16 17 15 14 14 14 14 13 11 10 7 7 6 6 9 10 7 3 3 5 11 13 12 10 8 8 8 8
19 20 21 21 20 19 19 19 18 17 17 17 17 17 17 16 14 12 11 9 9 11 11 12 13 13 13 12 11 10 9 8 7 6 6 6 5 6 8 8 7 6 6 5 3 2 1 4 5 6 7 8 9 12 18 20 16 16 18 16 14 14 14 16 14 12 11 9 9 8 8 10 10 7 5 4 5 9 13 12 9 8 8 8 8
20 20 21 20 20 19 19 19 19 18 18 19 19 18 17 17 15 13 12 10 10 11 12 13 13 13 12 11 10 10 9 7 7 6 6 5 4 4 5 6 7 6 6 5 4 4 2 1 4 6 8 8 9 10 15 20 18 17 18 15 14 14 14 16 16 14 13 13 11 11 11 12 10 7 7 7 6 8 10 10 8 8 8 8 8
19 18 19 19 19 20 19 19 19 19 19 19 20 19 18 17 15 13 12 11 10 12 13 14 13 13 12 11 11 10 9 7 7 6 5 5 4 5 5 5 6 7 8 7 5 4 3 1 2 6 8 9 10 10 14 19 20 18 17 16 15 13 14 15 16 15 13 12 12 11 12 13 11 8 8 9 8 8 8 8 9 9 8 9 10
17 17 19 19 19 20 19 18 18 19 19 20 19 19 18 17 15 13 13 11 12 13 13 14 14 13 12 12 12 10 8 7 6 5 5 5 5 6 5 4 5 7 8 8 5 3 3 1 3 6 9 10 10 10 14 18 20 18 16 16 15 14 14 15 15 14 11 11 11 11 11 12 12 11 10 11 10 9 8 8 10 10 9 10 11
18 18 19 19 20 20 19 18 18 19 19 19 19 19 19 18 16 14 14 12 13 14 14 15 14 13 13 13 12 10 8 8 7 6 6 6 6 6 5 5 6 6 7 7 6 4 2 2 1 5 8 11 11 11 14 17 19 20 16 15 16 15 15 15 14 12 12 12 12 11 10 11 12 11 11 11 11 10 10 10 10 9 7 8 9
20 19 18 18 19 19 18 19 19 20 20 19 19 20 20 18 16 16 15 14 14 14 14 14 14 13 13 13 12 10 9 9 7 6 6 7 6 6 6 6 7 7 6 7 6 4 2 1 2 4 7 11 11 10 14 16 16 19 17 15 17 17 15 15 14 12 13 13 13 12 10 10 13 13 11 11 10 10 12 13 10 7 5 5 7
19 18 18 17 18 18 19 20 21 21 20 20 20 21 19 18 18 17 16 15 15 14 14 14 14 13 13 13 11 10 10 9 7 6 6 7 7 6 6 6 7 7 6 6 6 5 3 3 5 6 7 10 11 10 13 14 14 19 18 14 15 18 15 14 14 14 14 14 13 12 11 11 13 14 12 11 8 7 13 16 10 5 3 3 7
18 18 18 18 18 19 20 21 22 22 21 21 21 20 18 18 19 19 18 16 15 14 14 15 15 14 14 13 12 11 10 9 7 7 7 7 6 6 6 6 7 7 5 5 5 5 5 4 7 8 7 8 9 8 10 13 14 19 19 14 14 16 15 14 13 14 16 16 14 13 12 11 11 12 11 11 8 6 11 16 13 8 5 5 8
18 18 19 19 20 20 21 22 22 22 21 21 20 19 19 19 20 20 18 17 16 15 15 15 15 15 14 13 13 11 11 10 9 8 8 7 6 6 5 6 7 6 5 5 5 5 6 4 7 8 8 9 8 6 8 12 14 16 16 15 15 15 15 15 13 14 17 17 15 14 12 11 11 10 10 9 9 8 9 13 14 12 8 7 9
18 19 20 20 21 21 22 22 22 21 20 20 20 19 19 19 20 20 19 18 16 16 16 15 15 15 15 14 13 12 12 11 9 9 8 7 6 5 5 5 6 6 5 6 6 6 6 5 7 9 7 8 7 6 8 11 12 13 12 14 16 14 15 16 13 12 16 17 16 15 13 12 11 10 10 9 8 8 9 11 12 13 10 9 10
20 20 21 21 21 22 22 22 22 21 21 21 21 20 19 19 20 20 19 18 17 16 16 16 16 16 15 13 13 13 12 11 9 9 8 7 6 5 4 5 6 6 6 6 6 7 7 5 7 9 8 8 7 7 8 9 11 12 11 15 16 14 16 20 15 12 16 18 17 17 16 14 13 12 11 10 8 7 9 11 12 13 12 10 11
22 22 22 21 21 21 22 22 22 22 21 22 22 21 20 20 20 20 19 18 17 16 16 16 16 16 14 13 13 13 12 11 10 9 8 8 6 5 5 5 6 6 6 6 6 7 7 5 5 6 6 7 6 7 8 9 10 11 13 16 16 14 18 22 17 12 15 17 17 17 17 16 14 14 12 11 10 8 8 11 13 14 14 12 12
22 22 22 21 20 20 21 22 22 21 21 22 23 23 21 20 21 20 20 19 18 17 17 16 15 15 14 14 14 13 12 11 10 10 10 8 6 5 5 6 7 7 7 6 6 7 7 6 5 5 6 7 7 7 9 10 10 11 13 14 14 17 21 21 17 14 14 16 15 16 18 17 15 15 14 12 12 11 9 11 13 15 15 13 12
21 21 21 22 22 22 22 22 21 20 21 22 23 23 21 20 21 20 20 19 18 17 16 15 15 14 14 14 14 12 12 12 13 13 11 9 7 5 6 7 8 8 7 7 7 7 7 8 8 8 8 8 8 8 9 11 11 11 13 13 12 17 21 17 15 16 15 16 16 16 17 17 15 14 14 13 14 13 11 11 14 16 15 14 13
20 20 22 22 23 23 23 23 22 21 21 22 22 23 22 21 20 19 19 19 19 17 15 14 14 14 15 15 14 13 12 13 14 12 9 8 8 7 9 9 7 7 7 7 7 6 6 6 7 7 7 7 9 10 9 10 11 12 13 13 12 15 17 15 15 17 18 17 17 16 16 17 16 15 13 12 14 14 13 13 15 16 16 16 15
21 20 21 23 23 24 23 23 23 22 21 22 22 24 24 22 20 18 18 18 17 16 15 14 14 15 16 15 14 14 15 14 13 11 9 9 9 9 11 10 8 7 7 6 5 5 5 5 5 5 6 6 8 10 8 8 11 12 13 14 14 16 16 15 15 18 20 20 19 17 16 16 15 14 12 12 13 13 13 14 14 14 15 17 17
22 21 22 23 24 23 23 23 23 22 21 21 22 23 23 23 22 18 16 15 15 15 15 15 16 16 17 16 13 12 15 14 13 12 11 11 11 10 10 9 8 8 7 5 4 3 4 5 5 5 6 5 7 9 9 9 11 12 12 13 15 16 16 16 16 15 18 22 21 16 13 14 12 11 13 14 13 15 16 15 15 14 15 17 17
23 23 22 23 23 23 22 23 23 21 20 21 22 23 23 23 23 19 15 14 14 16 16 16 17 17 17 16 13 12 14 15 14 13 12 12 13 12 9 7 6 7 7 7 6 3 2 3 4 5 4 4 5 7 8 9 10 12 12 12 14 15 15 14 10 7 12 20 21 14 10 12 12 12 14 16 15 17 18 18 17 15 15 16 18
24 23 22 22 23 23 22 22 22 20 20 21 21 22 22 22 23 21 17 15 16 17 17 18 19 18 17 18 16 14 16 17 16 15 13 14 14 12 9 8 7 5 4 5 6 4 2 2 3 3 2 2 2 4 6 8 9 10 10 10 11 12 9 5 3 6 10 16 20 16 9 9 13 13 13 14 14 14 16 17 18 17 16 17 19
24 23 23 23 23 23 22 23 21 19 20 22 21 20 21 21 23 22 18 16 17 18 18 19 20 18 18 19 16 14 17 19 18 16 14 14 13 11 10 9 8 6 5 5 4 3 2 2 3 3 2 3 4 5 6 7 8 7 6 5 4 5 6 6 6 6 6 9 15 16 8 6 10 11 9 9 9 9 11 12 14 17 18 18 19
22 22 23 24 23 23 22 22 20 18 20 21 20 19 20 22 23 22 19 18 19 19 19 20 20 18 18 18 16 15 18 19 18 17 15 14 12 12 11 10 9 7 6 5 4 3 3 3 4 4 4 5 6 7 8 9 8 6 5 4 3 4 5 5 4 4 4 5 11 16 11 7 9 9 7 6 5 5 5 6 8 11 14 17 19
22 23 24 23 22 22 21 20 20 19 19 21 20 19 21 24 24 22 21 20 19 18 18 19 19 18 17 17 16 17 18 19 19 18 16 15 14 13 12 10 9 8 7 6 5 4 3 3 3 2 2 3 3 5 7 9 9 8 5 5 6 5 4 4 5 4 3 4 10 15 11 10 11 10 8 7 4 2 2 2 2 4 6 10 15
24 23 22 22 20 20 20 20 20 19 18 20 21 20 23 26 25 23 23 22 20 18 17 16 17 16 17 19 19 18 20 21 19 18 17 16 15 13 12 11 10 9 9 9 8 7 6 5 4 4 4 4 3 3 3 6 9 9 4 1 3 4 3 4 6 5 3 4 10 12 9 11 13 11 10 8 5 3 4 4 4 4 3 4 7
23 21 20 20 19 18 19 20 20 20 18 18 20 21 25 28 28 25 24 23 21 19 17 16 16 15 16 21 21 19 20 21 18 17 18 17 15 13 12 12 11 10 11 11 10 8 7 5 6 6 7 8 7 7 6 6 8 8 4 4 3 3 3 3 5 5 2 4 10 10 8 11 14 13 11 7 3 4 5 5 6 7 6 5 5
Wind_Direction
178 181 181 181 182 183 185 187 188 190 190 192 196 198 205 208 212 221 227 241 251 260 263 259 253 253 263 272 287 311 332 329 321 259 274 113 180 268 281 270 261 256 246 232 224 214 198 188 185 177 187 110 71 48 41 44 42 37 29 21 16 20 21 20 27 36 46 48 46 51 55 43 34 40 41 38 37 34 40 45 41 36 33 36 52
178 180 180 180 181 183 185 185 186 189 189 191 195 195 201 208 213 222 229 241 250 261 267 261 256 252 258 269 282 301 322 320 293 232 266 128 167 254 271 259 252 252 243 234 222 209 201 194 188 184 188 154 96 59 45 50 45 37 27 20 16 18 18 14 17 32 52 54 51 54 52 38 32 40 42 39 38 36 39 36 33 37 22 7 22
181 179 178 180 182 186 188 187 187 191 194 192 196 198 198 205 209 218 230 244 257 264 266 262 261 259 260 268 279 299 315 312 279 246 254 215 163 218 252 255 249 242 237 233 222 207 207 201 192 188 184 167 135 43 36 50 42 33 22 18 18 19 11 1 2 21 51 59 57 47 41 37 37 43 46 46 43 37 30 21 24 34 25 6 6
186 182 181 184 187 190 190 189 188 192 197 192 195 200 200 208 213 224 236 246 259 261 260 258 262 269 274 278 289 302 305 295 268 243 241 244 193 190 216 236 238 231 232 234 227 215 211 203 193 190 184 179 178 29 51 68 48 18 12 17 19 16 12 12 22 33 55 72 74 57 52 53 56 57 55 54 48 42 39 39 37 35 35 27 21
189 188 188 189 187 188 189 189 188 187 195 198 199 202 205 215 220 229 236 240 248 247 248 249 253 263 273 284 296 302 297 286 268 245 229 233 233 220 204 202 206 217 238 240 232 221 212 205 199 197 187 184 204 37 76 85 34 354 6 15 18 18 22 37 51 58 77 94 92 75 72 70 69 66 61 60 55 52 53 54 51 46 43 43 50
189 192 194 194 188 187 188 187 187 182 192 204 203 204 207 212 218 223 225 230 237 236 240 245 250 254 260 281 292 303 299 287 274 255 242 238 241 240 231 205 186 203 236 243 239 226 215 216 213 212 195 185 195 88 102 104 351 342 4 13 16 24 38 55 62 70 84 94 92 87 80 75 71 65 59 56 53 55 58 61 60 56 53 58 66
190 190 193 198 194 190 190 187 188 184 189 200 195 199 207 207 214 217 219 225 229 231 234 238 247 256 270 289 293 303 297 286 274 263 251 245 245 240 247 231 207 220 223 224 233 223 216 222 223 222 196 187 188 131 137 225 325 332 359 11 17 31 56 68 67 74 80 87 91 85 76 71 66 63 61 55 58 63 62 66 64 58 59 64 65
190 188 189 195 197 192 192 189 185 183 182 187 189 196 201 200 204 208 214 219 222 224 223 226 232 243 266 281 292 301 294 287 275 266 258 253 252 242 246 245 233 232 210 202 211 212 221 222 223 228 203 194 186 148 205 280 318 345 357 15 23 39 74 79 74 80 83 87 86 80 75 70 61 66 73 68 71 74 65 66 64 57 60 63 64
190 188 188 191 194 192 191 185 180 177 174 177 186 194 194 192 192 197 207 217 221 216 207 210 210 215 248 271 291 298 293 289 278 267 260 256 256 250 247 247 242 231 213 206 197 199 221 219 220 230 214 203 182 164 219 258 147 82 3 23 32 52 89 88 81 86 89 93 92 87 83 76 67 70 82 80 78 77 68 64 63 61 66 67 69
192 188 189 189 191 195 190 181 177 175 173 173 180 187 187 186 185 187 197 211 219 207 199 204 203 220 246 264 285 293 290 286 275 266 261 258 257 254 253 250 243 231 225 226 203 193 204 210 217 223 218 216 189 176 209 220 149 127 51 34 45 65 92 94 90 90 89 92 91 88 83 77 77 76 78 76 71 76 73 63 63 66 68 71 73
194 190 188 188 190 196 192 183 180 176 175 176 180 186 185 184 186 186 191 205 211 203 201 210 222 242 257 272 276 279 279 277 272 264 261 261 260 255 255 252 240 231 233 235 222 206 197 201 209 212 213 212 196 186 193 197 169 147 117 51 62 79 95 97 92 91 88 87 85 83 76 72 87 91 79 69 67 79 76 61 64 70 70 75 79
195 192 189 188 189 195 194 188 185 180 178 180 183 186 185 187 189 190 191 197 205 205 207 221 245 255 255 264 272 273 269 266 266 264 262 257 256 256 256 254 242 237 239 238 237 228 209 200 205 214 214 202 198 199 191 193 189 174 134 86 87 90 98 99 94 98 91 86 86 81 74 72 84 87 81 78 74 76 73 62 68 73 72 76 80
194 193 192 190 190 195 196 192 188 184 182 182 184 185 185 189 190 195 198 199 203 204 208 228 255 262 264 269 270 264 258 258 257 255 257 254 254 257 255 256 250 245 246 245 246 238 226 207 196 206 207 193 196 203 199 200 193 183 150 115 106 96 97 98 94 97 88 82 85 85 93 90 81 76 75 79 72 68 71 69 71 74 76 80 83
193 194 195 194 192 195 196 192 188 186 183 184 187 187 188 192 192 199 203 207 213 208 206 225 255 276 289 290 277 246 225 236 246 240 244 249 254 258 257 258 255 248 248 251 251 239 231 225 205 190 183 177 185 197 200 195 182 180 164 130 118 103 101 99 89 90 89 85 83 90 109 103 81 73 72 75 75 73 74 73 74 79 83 86 87
194 194 196 196 195 196 194 191 188 186 184 187 192 194 194 195 199 205 206 210 216 214 210 222 259 287 281 279 301 292 224 211 223 225 228 240 247 255 259 261 260 253 248 253 256 249 242 239 232 211 193 181 182 197 197 185 179 182 167 141 130 114 105 102 93 90 92 88 84 91 106 101 83 82 80 81 83 78 73 75 81 85 87 89 89
194 194 195 196 195 196 194 190 188 187 188 191 197 201 201 201 204 209 214 218 220 220 216 218 244 271 278 282 299 291 259 190 218 216 209 228 237 245 258 262 264 260 252 252 255 257 255 248 238 220 213 211 201 201 197 182 179 175 164 151 141 127 111 106 100 95 95 91 89 92 99 98 88 87 90 89 82 76 77 81 88 91 93 94 93
193 194 194 193 194 195 194 192 191 191 193 195 199 206 209 210 211 212 216 224 230 229 219 219 231 246 276 291 282 270 290 10 320 223 193 221 236 236 251 258 260 257 250 251 251 251 252 245 242 232 225 227 210 199 192 179 172 160 161 164 153 141 123 114 107 100 98 95 94 94 97 99 93 90 92 92 83 80 84 87 91 96 98 97 96
191 193 193 192 194 195 194 196 195 194 197 199 202 209 214 218 220 220 220 224 232 235 227 222 228 238 253 268 276 284 300 313 303 265 203 218 219 223 245 253 257 258 252 254 253 249 249 245 249 246 238 236 210 194 192 180 167 158 168 174 161 151 137 125 116 107 104 101 98 95 95 97 97 95 91 91 89 86 88 91 95 99 100 100 99
190 191 191 192 194 196 196 196 197 196 197 200 205 212 218 224 227 226 227 226 227 233 236 230 229 235 240 249 257 262 270 272 279 296 276 222 183 210 247 250 252 259 259 259 255 250 248 246 251 247 240 239 208 193 200 185 166 163 180 184 165 157 150 137 127 121 116 109 104 99 97 95 97 100 95 92 91 88 91 94 98 102 101 101 102
190 189 190 192 194 197 197 196 197 197 197 200 206 215 220 225 228 227 231 231 227 232 239 238 238 239 235 242 252 251 252 255 261 275 286 290 229 218 243 248 253 263 265 264 258 251 246 243 249 244 237 238 207 192 199 189 169 164 184 191 167 159 159 147 138 134 124 113 112 106 99 95 94 100 100 95 91 89 92 94 98 103 102 103 105
190 189 189 193 194 196 196 195 196 197 199 201 205 215 219 222 225 226 230 233 230 233 239 242 242 243 242 244 250 250 244 246 252 259 272 293 294 273 251 242 253 263 261 262 259 252 246 242 249 245 235 232 211 195 194 187 170 163 183 186 163 162 163 153 146 142 133 121 119 114 103 97 93 98 105 105 100 93 93 98 102 104 105 106 109
186 188 190 193 194 195 196 195 196 196 199 201 205 212 216 219 223 226 231 235 234 234 238 243 242 243 246 247 247 247 245 245 246 252 264 277 285 297 295 275 277 279 258 251 261 258 244 235 241 237 225 221 211 200 193 183 169 169 186 178 160 165 166 157 154 150 145 133 125 120 110 104 98 97 106 121 118 106 102 106 106 109 110 110 111
182 186 190 193 193 194 196 196 196 196 196 199 205 211 214 217 222 226 231 235 236 235 236 241 243 243 242 243 246 247 250 254 254 257 267 278 283 291 296 297 299 300 288 257 282 277 251 230 223 217 209 209 206 199 193 181 172 178 189 178 161 166 167 160 159 155 153 146 133 130 121 113 110 99 101 135 135 116 110 115 114 116 116 114 116
179 183 190 191 190 193 195 197 197 196 196 199 204 209 212 216 219 221 226 230 235 236 236 238 241 243 240 239 244 247 249 253 260 269 275 285 287 284 296 308 306 303 309 313 298 286 262 236 217 203 198 200 201 198 191 180 178 184 190 184 166 164 168 165 162 159 159 158 148 145 140 130 125 103 87 130 149 130 116 120 120 122 124 122 122
178 182 188 189 189 191 193 196 197 195 195 197 202 206 209 212 215 217 221 228 235 237 240 241 240 240 238 235 238 243 246 249 255 268 278 285 286 288 301 310 308 304 302 291 282 281 268 240 222 207 193 190 196 196 190 179 180 189 189 186 172 165 170 173 169 167 166 167 165 159 156 149 149 124 78 101 159 152 133 129 129 130 132 131 130
177 181 185 185 187 190 192 195 196 193 192 194 200 205 208 212 214 216 218 227 239 241 241 242 239 238 237 235 238 240 243 247 252 263 278 287 292 301 308 307 301 297 293 282 269 262 241 197 202 204 188 188 195 194 191 182 184 191 182 178 181 175 172 175 177 178 176 180 178 170 168 169 186 193 91 77 159 165 151 139 134 136 139 139 138
177 181 183 184 186 187 189 192 192 189 189 193 199 205 209 213 214 215 215 222 237 239 237 236 234 233 232 235 241 242 240 243 250 260 275 288 297 307 308 308 303 298 303 301 297 296 197 157 164 188 181 186 193 192 192 187 186 187 176 174 185 183 174 175 186 189 187 195 189 182 179 180 196 208 163 95 152 167 163 147 131 134 145 145 145
178 182 183 182 183 184 188 190 188 186 188 194 201 205 208 211 212 212 210 215 227 230 228 227 227 227 228 233 237 238 237 239 245 255 269 282 295 307 306 307 307 306 313 312 330 19 99 147 146 167 175 181 185 188 189 188 188 183 179 180 182 184 181 180 189 192 188 196 190 180 175 173 182 187 163 148 147 160 166 157 137 136 150 152 149
178 179 178 178 180 183 188 188 186 186 190 197 204 206 208 210 210 207 207 212 219 222 223 222 223 223 223 225 228 230 233 234 239 246 258 269 275 287 287 287 292 294 307 315 333 7 21 128 135 154 171 177 180 183 181 186 192 184 183 186 176 181 189 184 191 197 198 202 190 173 168 167 173 173 165 165 154 150 163 166 156 149 155 160 156
175 173 173 175 179 185 187 185 185 189 193 199 205 206 208 210 208 205 205 208 215 219 221 222 223 223 221 221 226 231 229 229 237 243 250 256 255 258 252 250 267 282 299 311 321 350 16 53 112 142 164 170 176 182 176 185 195 186 184 187 178 188 197 187 193 203 205 203 189 173 169 169 175 179 177 175 168 162 163 166 164 159 160 165 166
172 170 172 176 181 186 186 183 185 193 197 201 205 205 206 207 204 203 204 205 212 217 219 223 226 226 226 225 227 230 226 225 233 237 245 251 247 249 247 247 258 273 292 300 300 332 15 47 96 125 157 167 170 176 172 182 195 190 185 186 184 196 198 187 195 203 195 189 182 175 172 172 174 179 183 182 180 181 175 168 166 166 172 179 180
173 173 175 178 182 184 183 183 188 195 199 201 203 202 203 204 200 202 204 202 208 215 216 222 227 229 231 230 228 225 218 220 221 221 239 247 238 238 243 251 258 260 275 283 283 299 326 308 152 130 150 164 169 174 171 177 191 192 188 186 189 193 188 184 194 195 185 182 180 178 176 172 171 175 184 191 195 194 183 177 174 168 178 191 189
175 174 175 178 181 183 183 187 192 198 200 200 200 200 201 202 200 202 204 202 205 211 214 219 224 227 232 233 229 221 213 215 214 211 230 234 227 234 241 253 268 267 260 262 274 284 270 232 180 140 145 161 167 175 178 177 185 191 188 186 191 191 181 178 185 186 185 186 183 181 179 168 167 176 186 193 204 203 191 190 183 161 161 185 185
175 173 175 178 182 185 187 192 198 201 202 199 199 200 200 199 199 201 203 202 203 207 212 218 219 222 230 233 231 223 214 213 210 207 219 223 228 242 248 259 271 269 257 254 267 267 221 166 154 150 153 164 163 170 184 180 177 185 186 183 186 187 179 173 176 184 190 192 190 185 181 173 172 182 193 200 212 206 194 199 198 172 165 186 185
175 174 176 179 184 188 191 196 200 202 202 201 200 200 197 198 200 200 201 200 200 203 210 215 215 217 221 226 229 222 211 212 214 210 216 224 237 253 262 274 273 262 249 239 249 254 234 191 161 155 152 160 162 167 184 185 180 183 187 183 178 180 179 173 175 187 193 195 195 190 185 182 178 185 198 207 220 216 198 205 213 214 209 198 194
176 178 181 185 188 191 194 198 200 201 202 201 201 200 198 200 202 201 201 201 199 202 208 213 215 215 216 222 226 217 208 212 212 208 213 225 237 252 271 281 267 247 223 209 222 240 241 204 151 145 147 154 162 161 169 180 184 184 185 184 179 178 180 176 176 190 196 197 200 197 191 189 184 186 195 204 218 228 219 215 221 224 219 206 202
181 183 186 188 191 193 196 198 198 199 199 199 200 200 200 203 206 205 205 203 202 202 207 212 214 214 216 222 222 213 209 214 213 211 218 227 233 255 284 278 250 230 208 198 197 206 229 209 143 141 153 154 155 161 163 169 176 179 182 183 181 180 181 179 177 193 201 199 200 202 199 197 195 195 200 207 217 231 234 225 223 223 219 213 210
186 189 190 191 194 197 197 197 198 198 198 200 201 201 200 204 208 209 207 207 205 203 206 211 213 215 219 222 220 213 212 217 218 218 223 228 235 258 276 252 231 225 213 201 189 188 214 211 152 148 160 159 155 161 169 171 171 173 176 179 183 187 189 186 182 194 205 202 201 204 203 202 204 205 207 217 225 236 239 229 221 221 220 218 213
191 192 193 193 197 200 200 200 200 200 200 201 201 199 199 202 207 209 208 208 206 202 205 210 212 216 219 219 216 212 214 217 214 212 217 224 237 254 253 232 223 228 219 200 187 190 199 199 170 161 166 170 167 160 166 176 176 174 174 176 182 189 193 192 188 191 200 199 200 208 208 205 209 211 213 221 229 235 237 229 220 217 218 218 214
196 195 194 196 199 201 203 202 201 201 200 200 198 197 198 201 205 208 208 209 205 201 204 207 209 215 217 216 214 210 213 215 205 202 208 220 239 242 227 220 218 222 221 205 195 193 186 182 183 174 168 176 177 160 157 169 181 189 187 183 186 189 190 192 195 197 194 189 193 207 209 205 208 213 215 219 226 229 230 226 219 215 216 219 217
200 199 198 199 200 200 202 202 200 199 200 200 197 195 197 200 203 206 208 209 205 201 201 202 206 213 213 212 213 208 208 209 202 202 208 222 241 225 197 203 211 212 213 207 201 195 187 187 185 176 178 190 184 170 170 180 188 192 190 190 193 190 189 193 203 207 200 189 193 206 207 202 203 208 210 214 221 223 220 218 216 214 216 222 224
201 203 201 202 202 200 201 201 198 197 198 200 198 195 196 199 201 204 206 207 205 202 198 197 203 210 209 207 207 206 209 209 204 206 215 222 223 201 181 186 198 200 200 202 204 200 197 201 193 185 200 209 192 185 190 193 191 186 185 186 185 182 188 199 208 211 206 194 194 205 209 206 208 209 205 211 222 222 216 214 215 217 220 224 227
200 204 203 205 204 200 201 200 197 196 196 199 202 199 198 200 200 200 202 203 202 199 196 197 204 208 205 200 202 207 209 204 199 205 215 215 207 188 177 179 185 190 194 197 196 198 209 212 199 199 217 215 193 189 189 186 190 191 187 186 183 178 184 200 210 213 209 199 197 208 209 201 207 213 205 206 217 216 211 212 215 221 227 227 227
201 203 204 207 205 200 202 201 198 196 195 199 206 207 205 205 202 197 196 196 195 194 195 201 205 202 198 194 192 197 198 195 197 204 207 206 199 182 170 172 180 187 195 197 183 186 215 215 203 206 219 212 189 185 184 180 184 191 190 192 194 190 193 208 220 218 206 198 201 211 202 184 192 207 198 192 193 194 200 207 211 220 228 228 229
202 202 204 208 205 200 201 203 199 196 197 202 208 208 206 207 205 199 192 189 193 195 197 203 201 192 190 188 181 180 190 194 201 205 203 200 193 179 168 175 182 184 193 196 191 193 210 218 213 202 201 213 196 176 179 182 181 189 194 194 200 206 212 223 227 204 185 191 197 199 177 166 184 202 200 194 190 190 197 203 208 215 222 223 227
201 202 204 208 205 200 200 203 200 198 201 206 208 205 204 207 206 200 190 186 194 198 197 199 195 185 185 188 183 183 192 195 196 198 197 195 188 174 162 167 169 169 176 181 187 194 197 231 237 200 161 212 197 146 161 184 191 196 201 203 207 213 215 204 137 125 160 184 192 186 159 162 186 195 197 202 203 201 204 208 210 214 218 218 222
198 200 203 205 204 200 199 201 200 199 203 209 210 205 203 206 203 197 191 189 193 194 193 193 190 187 190 191 189 190 191 191 193 194 193 191 186 173 159 152 149 154 163 161 163 168 169 200 220 197 170 185 181 158 160 181 197 202 202 210 203 181 172 151 108 103 141 173 187 185 165 163 186 183 180 195 205 209 218 224 222 221 222 221 221
195 198 201 203 201 198 197 198 198 197 204 212 212 205 202 203 199 194 191 191 190 189 190 190 190 191 192 189 189 191 189 191 197 196 191 192 189 177 165 153 145 151 156 151 153 165 180 197 201 205 203 193 190 186 175 177 190 193 189 190 162 143 161 156 112 101 121 145 183 188 175 159 173 172 161 169 184 200 223 240 236 229 230 229 226
193 196 199 200 198 195 194 197 197 197 205 214 213 204 200 200 196 192 191 190 189 188 186 187 191 194 193 187 184 186 190 195 198 194 192 195 190 178 167 156 145 140 138 137 140 146 151 161 166 167 170 168 179 186 181 179 180 177 188 211 200 190 187 157 143 161 166 169 192 192 175 153 164 168 152 143 147 163 184 211 219 220 227 227 225
193 196 196 194 193 194 196 198 197 196 205 217 215 205 200 199 194 190 188 185 185 184 181 184 190 192 192 188 182 186 196 199 194 190 192 193 189 181 171 160 149 140 138 138 134 128 122 108 98 91 88 88 89 113 154 174 173 169 174 266 194 183 173 144 156 181 182 176 192 191 166 150 160 160 139 118 96 86 95 93 93 94 115 178 202
192 192 191 191 192 195 198 198 197 195 201 216 217 206 199 197 191 185 182 181 180 181 180 183 187 188 190 189 186 191 202 199 190 187 189 190 189 183 171 162 156 148 145 141 136 133 127 111 96 83 78 77 75 82 93 115 146 151 121 63 94 152 167 148 172 192 180 176 190 184 155 153 160 157 147 135 110 102 96 91 105 109 111 130 154